FENGYUN 1C DEB, 31361

Orbit data source: Space-Track

FENGYUN 1C DEB, 31361 is space debris in SSO originally from a launch on Mon, 10 May 1999 UTC launched from the Taiyaun Space Center, China (TSC). Fengyun 1C debris stems from the Chinese weather satellite Fengyun-1C, which was intentionally destroyed by a Chinese anti-satellite missile in 2007. This event dramatically increased the amount of space debris, with thousands of trackable fragments posing hazards to satellites and human spaceflight. The Fengyun 1C debris cloud has become a focal point in discussions about space sustainability and the need for international regulations to prevent the creation of new debris.

Loading next visibility...
Identifier
31361, 1999-025BRR
Orbit
SSO
Country
Flag of CNCN / PRC
Related business
Manufacturer
Unknown
Mission
Spacecraft
Bus & Motor
Unknown
Mass
Unknown
Launch date (UTC)
1999-05-10 (27 years ago)
Launch vehicle
Unknown
Launch site
Taiyaun Space Center, China (TSC)
Object type
Payload
Rocket body
Debris
Shape & HBR
Unknown shape, 0.1 m
Radar Cross Section
Small (<0.1 m²)

Expand to show TLE details & history
Last TLE update: 2 days ago

TLE from 2 days ago
0 FENGYUN 1C DEB
1 31361U 99025BRR 26166.17261973  .00000130  00000-0  83661-4 0  9998
2 31361  98.5728 139.9143 0043767 258.3953 101.2308 14.17849022991773
Epoch: 2026-06-15T04:08Z
TLE epoch observation values (Epoch: 2026-06-15T04:08:34.344Z)
Latitude
-0.00005°
Longitude
174.30839°
Altitude
841.833 km
Speed
7.429 km/s
True Right ascension
09h 19m 39s
True Declination
0° 00' 00"
Sunlit
Object was in daylight at epoch
Visualization orbit readout
Latitude
Unknown
Longitude
Unknown
Altitude
Unknown
Speed
Unknown
Apparent Right ascension
Unknown
Apparent Declination
Unknown
Sunlit
N/A
Visualization observer readout
Local Sidereal Time
04:56:49
Azimuth
Unknown
Elevation
Unknown
Doppler factor
Unknown
Orbital elements
Apogee altitude
861.338 km
Perigee altitude
798.244 km
Semi-major axis
7,207.928 km
Eccentricity
0.00438
Inclination
98.5728°
RAAN
139.9143°
Arg. of periapsis
258.3953°
True anomaly
101.7222°
Mean anomaly
101.2308°
Eccentric anomaly
101.47655°
Mean motion
3.54672 °/min
Orbital period
101.5 mins
BSTAR
0.000083661
Loading maneuver chart data...
Computing Atmospheric mass density...

Documentation

Showing up to 5 results
|